HELLAS-SAT 2

Last updated on Tue Mar 03 2026 00:02:49 GMT+0000 (Coordinated Universal Time)

1 27811U 03020A 26061.57890793 -.00000098 00000+0 00000+0 0 9993 2 27811 7.0899 69.1546 0008039 241.2317 48.3405 1.00272079 41776
UTC large
Height (km)
Speed (km/s)
/
Latitude / Longitude
Inclination (degrees)
Orbital Period (minutes)
Azimuth
Elevation
Range (km)
Doppler Factor

Next 0 passes for location: London (51.5072 / 0.1276)

Sorry there are no passes over London.